Flag for Finland Weather past 2 weeks in Oulu, Finland

Now
48 °F

Clear.


Feels Like: 48 °F
Forecast: 45 / 59 °F
Wind: 1 mph from North

Location: Oulu Airport

Current Time: Sep 16, 2014 at 9:19:55 PM

Latest Report: Sep 16, 2014 at 8:50 PM


Visibility: 10 mi

Pressure: 30.36 "Hg

Humidity: 82%

Dew point: 43 °F

Location of OuluLocation

Historic Weather in Oulu — Graph

°F

Oulu temperature yesterday

Maximum temperature yesterday: 57 °F (at 2:20 PM)
Minimum temperature yesterday: 37 °F (at 6:50 AM)
Average temperature yesterday: 48 °F

Past Weeks' High & Low Weather Summary

 TemperatureHumidityPressure
High70 °F (Sep 9, 2:20 PM)100% (Sep 3, 1:50 AM)30.48 "Hg (Sep 3, 1:50 AM)
Low36 °F (Sep 16, 5:20 AM)45% (Sep 16, 2:20 PM)29.89 "Hg (Sep 9, 2:20 PM)
Average55 °F81%30.14 "Hg
* Reported Sep 1 8:20 PM — Sep 16 8:20 PM, Oulu, Weather by CustomWeather, © 2014

Note: Actual official high and low records may vary slightly from our data, if they occured in-between our weather recording intervals... More about our weather records

Advertising

Oulu weather history for previous 24 hours

 ConditionsComfort  
Time TempWeatherWind HumidityBarometerVisibility
8:20 PM
Sep 16
48 °FSunny.2 mph82%30.36 "Hg10 mi
7:20 PM54 °FSunny.2 mph67%30.36 "Hg10 mi
6:50 PM59 °FSunny.1 mph59%30.36 "Hg10 mi
6:20 PM61 °FSunny.2 mph48%30.36 "Hg10 mi
5:50 PM61 °FSunny.2 mph48%30.36 "Hg10 mi
5:20 PM61 °FPassing clouds.3 mph48%30.36 "HgN/A
4:50 PM61 °FSunny.6 mph48%30.36 "Hg10 mi
4:20 PM61 °FPassing clouds.6 mph48%30.36 "HgN/A
3:50 PM61 °FPassing clouds.6 mph45%30.39 "HgN/A
3:20 PM63 °FPassing clouds.6 mph49%30.39 "HgN/A
2:50 PM63 °FPassing clouds.5 mph45%30.39 "HgN/A
2:20 PM63 °FPassing clouds.7 mph45%30.39 "HgN/A
1:50 PM63 °FSunny.5 mph49%30.39 "Hg10 mi
1:20 PM61 °FPassing clouds.5 mph52%30.39 "HgN/A
12:50 PM61 °FSunny.3 mph48%30.39 "Hg10 mi
12:20 PM59 °FPassing clouds.5 mph59%30.42 "HgN/A
11:50 AM57 °FPassing clouds.6 mph63%30.42 "HgN/A
11:20 AM55 °FSunny.5 mph67%30.42 "Hg10 mi
10:50 AM52 °FPassing clouds.3 mph77%30.42 "HgN/A
10:20 AM50 °FPassing clouds.3 mph76%30.42 "HgN/A
9:50 AM46 °FSunny.5 mph82%30.42 "Hg10 mi
9:20 AM45 °FPassing clouds.3 mph81%30.42 "HgN/A
8:50 AM41 °FSunny.5 mph87%30.39 "Hg10 mi
8:20 AM39 °FSunny.5 mph87%30.39 "Hg10 mi
7:50 AM37 °FPassing clouds.6 mph93%30.39 "HgN/A
7:20 AM36 °FClear.5 mph93%30.39 "Hg10 mi
6:50 AM36 °FClear.6 mph93%30.39 "Hg10 mi
6:20 AM36 °FClear.6 mph93%30.39 "Hg10 mi
5:50 AM36 °FClear.6 mph93%30.39 "Hg10 mi
5:20 AM36 °FClear.5 mph93%30.39 "Hg10 mi
4:50 AM37 °FClear.5 mph93%30.39 "Hg10 mi
4:20 AM37 °FClear.6 mph93%30.39 "Hg10 mi
3:50 AM39 °FClear.2 mph87%30.39 "Hg10 mi
3:20 AM37 °FClear.5 mph93%30.39 "Hg10 mi
2:50 AM39 °FClear.5 mph87%30.42 "Hg10 mi
2:20 AM39 °FClear.3 mph93%30.42 "Hg10 mi
1:50 AM39 °FClear.5 mph93%30.42 "Hg10 mi
1:20 AM41 °FClear.2 mph87%30.42 "Hg10 mi
12:50 AM41 °FClear.5 mph93%30.42 "Hg10 mi
12:20 AM41 °FClear.3 mph93%30.39 "Hg10 mi
11:50 PM
Sep 15
45 °FClear.2 mph93%30.39 "Hg10 mi
11:20 PM43 °FClear.3 mph93%30.39 "Hg10 mi
10:50 PM43 °FClear.1 mph93%30.39 "Hg10 mi
10:20 PM43 °FClear.2 mph93%30.42 "Hg10 mi
9:50 PM43 °FPassing clouds.3 mph87%30.42 "HgN/A
9:20 PM45 °FClear.1 mph87%30.42 "Hg10 mi
Weather by CustomWeather, © 2014

See weather overviewHow to use our weather pages